Time,TemperatureF,DewpointF,PressureIn,WindDirection,WindDirectionDegrees,WindSpeedMPH,WindSpeedGustMPH,Humidity,HourlyPrecipIn,Conditions,Clouds,dailyrainin,SoftwareType,DateUTC
2013-07-06 00:02:00,82.0,77.0,30.04,ESE,115,7.0,18.0,85,0.00,,,0.98,,2013-07-06 04:02:00,
2013-07-06 00:12:00,82.0,77.0,30.04,ESE,116,9.0,19.0,85,0.00,,,0.98,,2013-07-06 04:12:00,
2013-07-06 00:22:00,82.0,77.0,30.04,ESE,103,8.0,19.0,84,0.00,,,0.98,,2013-07-06 04:22:00,
2013-07-06 00:33:00,83.0,78.0,30.05,ESE,108,10.0,20.0,84,0.00,,,0.98,,2013-07-06 04:33:00,
2013-07-06 00:43:00,83.0,78.0,30.04,ESE,123,12.0,19.0,84,0.00,,,0.98,,2013-07-06 04:43:00,
2013-07-06 00:53:00,83.0,78.0,30.04,ESE,113,9.0,16.0,84,0.00,,,0.98,,2013-07-06 04:53:00,
2013-07-06 01:02:00,83.0,78.0,30.04,ESE,111,10.0,19.0,84,0.00,,,0.98,,2013-07-06 05:02:00,
2013-07-06 01:12:00,83.0,78.0,30.04,ESE,114,8.0,16.0,84,0.00,,,0.98,,2013-07-06 05:12:00,
2013-07-06 01:22:00,83.0,78.0,30.04,ESE,105,10.0,18.0,84,0.00,,,0.98,,2013-07-06 05:22:00,
2013-07-06 01:33:00,83.0,78.0,30.03,ESE,119,11.0,20.0,84,0.00,,,0.98,,2013-07-06 05:33:00,
2013-07-06 01:42:00,83.0,78.0,30.04,ESE,123,12.0,18.0,84,0.00,,,0.98,,2013-07-06 05:42:00,
2013-07-06 01:53:00,83.0,78.0,30.03,SE,144,10.0,19.0,85,0.00,,,0.98,,2013-07-06 05:53:00,
2013-07-06 02:02:00,83.0,78.0,30.03,ESE,113,6.0,20.0,84,0.00,,,0.98,,2013-07-06 06:02:00,
2013-07-06 02:12:00,83.0,77.0,30.02,ESE,123,13.0,20.0,83,0.00,,,0.98,,2013-07-06 06:12:00,
2013-07-06 02:22:00,83.0,77.0,30.01,ESE,111,13.0,18.0,82,0.00,,,0.98,,2013-07-06 06:22:00,
2013-07-06 02:34:00,83.0,77.0,30.01,ENE,60,8.0,19.0,82,0.00,,,0.98,,2013-07-06 06:34:00,
2013-07-06 02:43:00,83.0,77.0,30.01,ENE,78,10.0,16.0,83,0.00,,,0.98,,2013-07-06 06:43:00,
2013-07-06 02:53:00,83.0,77.0,30.01,ESE,115,3.0,18.0,83,0.00,,,0.98,,2013-07-06 06:53:00,
2013-07-06 03:02:00,83.0,78.0,30.01,ESE,105,6.0,15.0,84,0.00,,,0.98,,2013-07-06 07:02:00,
2013-07-06 03:12:00,82.0,76.0,29.99,ENE,63,8.0,12.0,82,0.00,,,0.98,,2013-07-06 07:12:00,
2013-07-06 03:22:00,83.0,77.0,29.98,ENE,76,6.0,16.0,83,0.00,,,0.98,,2013-07-06 07:22:00,
2013-07-06 03:33:00,83.0,77.0,29.97,ENE,73,9.0,19.0,83,0.01,,,0.99,,2013-07-06 07:33:00,
2013-07-06 03:44:00,83.0,78.0,29.97,ENE,69,9.0,17.0,85,0.01,,,0.99,,2013-07-06 07:44:00,
2013-07-06 03:52:00,82.0,77.0,29.97,East,85,11.0,20.0,86,0.01,,,0.99,,2013-07-06 07:52:00,
2013-07-06 04:02:00,82.0,77.0,29.98,ESE,109,4.0,14.0,86,0.01,,,0.99,,2013-07-06 08:02:00,
2013-07-06 04:12:00,82.0,77.0,29.98,East,90,12.0,18.0,86,0.01,,,0.99,,2013-07-06 08:12:00,
2013-07-06 04:21:00,82.0,77.0,29.98,ESE,107,13.0,22.0,85,0.01,,,0.99,,2013-07-06 08:21:00,
2013-07-06 04:34:00,82.0,76.0,29.98,ESE,107,15.0,21.0,83,0.00,,,0.99,,2013-07-06 08:34:00,
2013-07-06 04:43:00,83.0,77.0,29.98,ESE,103,14.0,22.0,83,0.00,,,0.99,,2013-07-06 08:43:00,
2013-07-06 04:54:00,83.0,77.0,29.98,SE,142,10.0,21.0,83,0.00,,,0.99,,2013-07-06 08:54:00,
2013-07-06 05:02:00,83.0,78.0,29.98,ESE,114,13.0,21.0,84,0.00,,,0.99,,2013-07-06 09:02:00,
2013-07-06 05:11:00,83.0,78.0,29.98,East,96,11.0,22.0,84,0.00,,,0.99,,2013-07-06 09:11:00,
2013-07-06 05:22:00,82.0,77.0,29.98,SE,129,14.0,22.0,84,0.00,,,0.99,,2013-07-06 09:22:00,
2013-07-06 05:33:00,83.0,78.0,29.98,ESE,107,11.0,20.0,85,0.00,,,0.99,,2013-07-06 09:33:00,
2013-07-06 05:43:00,83.0,78.0,29.98,ESE,123,15.0,23.0,85,0.00,,,0.99,,2013-07-06 09:43:00,
2013-07-06 05:52:00,82.0,77.0,29.98,ESE,113,11.0,24.0,84,0.00,,,0.91,,2013-07-06 09:52:00,
2013-07-06 06:02:00,82.0,77.0,29.98,ESE,112,10.0,22.0,84,0.00,,,0.91,,2013-07-06 10:02:00,
2013-07-06 06:11:00,82.0,77.0,29.98,ESE,111,13.0,22.0,84,0.00,,,0.91,,2013-07-06 10:11:00,
2013-07-06 06:22:00,82.0,76.0,29.98,ESE,122,11.0,21.0,83,0.00,,,0.91,,2013-07-06 10:22:00,
2013-07-06 06:33:00,82.0,77.0,29.98,East,88,12.0,21.0,84,0.00,,,0.91,,2013-07-06 10:33:00,
2013-07-06 06:42:00,82.0,76.0,29.98,ESE,103,15.0,21.0,83,0.00,,,0.91,,2013-07-06 10:42:00,
2013-07-06 06:53:00,82.0,76.0,29.98,SE,130,7.0,19.0,83,0.00,,,0.91,,2013-07-06 10:53:00,
2013-07-06 07:01:00,82.0,76.0,29.99,SE,126,13.0,21.0,83,0.00,,,0.91,,2013-07-06 11:01:00,
2013-07-06 07:11:00,82.0,77.0,29.99,ESE,109,14.0,22.0,84,0.00,,,0.91,,2013-07-06 11:11:00,
2013-07-06 07:22:00,82.0,77.0,29.99,East,90,8.0,21.0,85,0.00,,,0.91,,2013-07-06 11:22:00,
2013-07-06 07:33:00,82.0,77.0,29.99,East,80,14.0,22.0,85,0.00,,,0.91,,2013-07-06 11:33:00,
2013-07-06 07:43:00,82.0,77.0,29.99,ESE,115,9.0,22.0,85,0.00,,,0.91,,2013-07-06 11:43:00,
2013-07-06 07:53:00,82.0,77.0,29.99,ESE,108,11.0,22.0,85,0.00,,,0.91,,2013-07-06 11:53:00,
2013-07-06 08:12:00,82.0,77.0,30.00,East,96,14.0,20.0,85,0.00,,,0.91,,2013-07-06 12:12:00,
2013-07-06 08:22:00,82.0,77.0,30.01,ESE,109,8.0,23.0,85,0.00,,,0.91,,2013-07-06 12:22:00,
2013-07-06 08:33:00,82.0,77.0,30.01,East,82,7.0,19.0,85,0.00,,,0.91,,2013-07-06 12:33:00,
2013-07-06 08:43:00,82.0,77.0,30.01,East,85,8.0,20.0,85,0.00,,,0.91,,2013-07-06 12:43:00,
2013-07-06 08:52:00,82.0,77.0,30.01,ESE,109,12.0,22.0,85,0.00,,,0.91,,2013-07-06 12:52:00,
2013-07-06 09:01:00,82.0,77.0,30.01,ESE,117,13.0,21.0,84,0.00,,,0.91,,2013-07-06 13:01:00,
2013-07-06 09:12:00,82.0,77.0,30.01,ESE,115,14.0,20.0,84,0.00,,,0.91,,2013-07-06 13:12:00,
2013-07-06 09:22:00,82.0,77.0,30.01,SE,128,11.0,21.0,84,0.00,,,0.91,,2013-07-06 13:22:00,
2013-07-06 09:33:00,82.0,77.0,30.01,SE,138,14.0,22.0,84,0.00,,,0.91,,2013-07-06 13:33:00,
2013-07-06 09:43:00,82.0,77.0,30.02,East,93,7.0,20.0,84,0.00,,,0.91,,2013-07-06 13:43:00,
2013-07-06 09:52:00,82.0,77.0,30.01,ESE,113,12.0,20.0,84,0.00,,,0.32,,2013-07-06 13:52:00,
2013-07-06 10:02:00,83.0,78.0,30.02,East,88,10.0,21.0,84,0.00,,,0.32,,2013-07-06 14:02:00,
2013-07-06 10:12:00,83.0,77.0,30.02,ESE,106,13.0,23.0,83,0.00,,,0.32,,2013-07-06 14:12:00,
2013-07-06 10:22:00,83.0,77.0,30.02,ESE,120,10.0,21.0,83,0.00,,,0.32,,2013-07-06 14:22:00,
2013-07-06 10:34:00,83.0,77.0,30.03,ESE,117,8.0,19.0,83,0.00,,,0.32,,2013-07-06 14:34:00,
2013-07-06 10:42:00,83.0,77.0,30.03,East,84,4.0,21.0,83,0.00,,,0.32,,2013-07-06 14:42:00,
2013-07-06 10:53:00,83.0,77.0,30.03,SE,134,11.0,21.0,83,0.00,,,0.22,,2013-07-06 14:53:00,
2013-07-06 11:02:00,83.0,77.0,30.03,East,100,12.0,20.0,82,0.00,,,0.22,,2013-07-06 15:02:00,
2013-07-06 11:12:00,83.0,77.0,30.03,ESE,109,7.0,19.0,82,0.00,,,0.22,,2013-07-06 15:12:00,
2013-07-06 11:22:00,83.0,77.0,30.03,ENE,63,8.0,18.0,82,0.00,,,0.22,,2013-07-06 15:22:00,
2013-07-06 11:33:00,83.0,77.0,30.03,ENE,63,8.0,18.0,82,0.00,,,0.22,,2013-07-06 15:33:00,
2013-07-06 11:43:00,84.0,78.0,30.04,ESE,107,6.0,20.0,82,0.00,,,0.22,,2013-07-06 15:43:00,
2013-07-06 11:53:00,84.0,78.0,30.04,ESE,113,7.0,21.0,82,0.00,,,0.18,,2013-07-06 15:53:00,
2013-07-06 12:07:00,84.0,78.0,30.04,ESE,111,16.0,23.0,81,0.00,,,0.18,,2013-07-06 16:07:00,
2013-07-06 12:15:00,84.0,78.0,30.04,East,86,11.0,20.0,82,0.00,,,0.18,,2013-07-06 16:15:00,
2013-07-06 12:26:00,84.0,78.0,30.04,ESE,111,13.0,22.0,81,0.00,,,0.18,,2013-07-06 16:26:00,
2013-07-06 12:45:00,85.0,78.0,30.04,ENE,72,9.0,20.0,80,0.00,,,0.18,,2013-07-06 16:45:00,
2013-07-06 12:54:00,85.0,78.0,30.05,ESE,120,13.0,20.0,80,0.00,,,0.18,,2013-07-06 16:54:00,
2013-07-06 13:01:00,85.0,78.0,30.04,ESE,109,11.0,21.0,81,0.00,,,0.17,,2013-07-06 17:01:00,
2013-07-06 13:43:00,84.0,77.0,30.04,ESE,104,14.0,20.0,79,0.00,,,0.17,,2013-07-06 17:43:00,
2013-07-06 13:53:00,84.0,77.0,30.04,East,98,13.0,19.0,79,0.00,,,0.17,,2013-07-06 17:53:00,
2013-07-06 14:11:00,85.0,78.0,30.04,ESE,112,8.0,18.0,79,0.00,,,0.17,,2013-07-06 18:11:00,
2013-07-06 14:24:00,85.0,78.0,30.04,East,88,7.0,20.0,80,0.00,,,0.17,,2013-07-06 18:24:00,
2013-07-06 14:34:00,85.0,78.0,30.03,SE,135,5.0,19.0,80,0.00,,,0.17,,2013-07-06 18:34:00,
2013-07-06 14:45:00,85.0,78.0,30.03,ENE,72,9.0,18.0,79,0.00,,,0.17,,2013-07-06 18:45:00,
2013-07-06 14:54:00,85.0,78.0,30.03,East,91,4.0,19.0,80,0.00,,,0.17,,2013-07-06 18:54:00,
2013-07-06 15:12:00,85.0,77.0,30.02,ESE,112,8.0,19.0,78,0.00,,,0.17,,2013-07-06 19:12:00,
2013-07-06 15:30:00,85.0,77.0,30.00,East,93,10.0,18.0,78,0.00,,,0.17,,2013-07-06 19:30:00,
2013-07-06 15:44:00,85.0,78.0,30.00,ENE,63,7.0,18.0,79,0.00,,,0.17,,2013-07-06 19:44:00,
2013-07-06 15:54:00,85.0,77.0,29.99,East,91,8.0,19.0,78,0.00,,,0.17,,2013-07-06 19:54:00,
2013-07-06 16:14:00,85.0,77.0,29.99,SE,129,5.0,17.0,78,0.00,,,0.17,,2013-07-06 20:14:00,
2013-07-06 17:01:00,84.0,76.0,29.98,NE,50,8.0,16.0,78,0.00,,,0.17,,2013-07-06 21:01:00,
2013-07-06 17:14:00,85.0,77.0,29.97,ESE,104,8.0,16.0,77,0.00,,,0.17,,2013-07-06 21:14:00,
2013-07-06 18:00:00,84.0,76.0,29.96,East,91,10.0,17.0,78,0.00,,,0.16,,2013-07-06 22:00:00,
2013-07-06 18:23:00,85.0,77.0,29.96,East,80,7.0,19.0,77,0.00,,,0.16,,2013-07-06 22:23:00,
2013-07-06 18:44:00,84.0,76.0,29.97,ESE,103,6.0,13.0,77,0.00,,,0.16,,2013-07-06 22:44:00,
2013-07-06 18:54:00,84.0,76.0,29.97,East,83,6.0,14.0,76,0.00,,,0.16,,2013-07-06 22:54:00,
2013-07-06 19:01:00,84.0,76.0,29.97,East,92,6.0,14.0,76,0.00,,,0.15,,2013-07-06 23:01:00,
2013-07-06 19:10:00,85.0,77.0,29.98,East,101,7.0,16.0,76,0.00,,,0.15,,2013-07-06 23:10:00,
2013-07-06 19:33:00,84.0,76.0,29.98,ENE,61,5.0,13.0,76,0.00,,,0.15,,2013-07-06 23:33:00,
2013-07-06 19:46:00,84.0,76.0,29.98,East,84,3.0,14.0,77,0.00,,,0.15,,2013-07-06 23:46:00,
2013-07-06 19:53:00,84.0,76.0,29.99,ESE,110,7.0,12.0,77,0.00,,,0.15,,2013-07-06 23:53:00,
2013-07-06 20:02:00,84.0,76.0,29.99,ESE,102,4.0,10.0,77,0.00,,,0.15,,2013-07-07 00:02:00,
2013-07-06 20:13:00,83.0,76.0,29.99,ENE,76,4.0,8.0,79,0.00,,,0.15,,2013-07-07 00:13:00,
2013-07-06 20:16:00,84.0,76.0,29.99,East,90,2.0,12.0,78,0.00,,,0.15,,2013-07-07 00:16:00,
2013-07-06 20:24:00,84.0,76.0,29.99,East,80,5.0,12.0,78,0.00,,,0.15,,2013-07-07 00:24:00,
2013-07-06 20:54:00,83.0,76.0,29.99,ENE,76,4.0,8.0,79,0.00,,,0.15,,2013-07-07 00:54:00,
2013-07-06 20:56:00,83.0,76.0,29.99,ESE,105,0.0,9.0,79,0.00,,,0.15,,2013-07-07 00:56:00,
2013-07-06 21:23:00,83.0,76.0,29.99,ESE,105,0.0,9.0,79,0.00,,,0.15,,2013-07-07 01:23:00,
2013-07-06 21:44:00,83.0,76.0,29.99,ESE,105,0.0,9.0,79,0.00,,,0.15,,2013-07-07 01:44:00,
2013-07-06 21:54:00,83.0,76.0,29.99,ESE,105,0.0,9.0,79,0.00,,,0.15,,2013-07-07 01:54:00,
2013-07-06 23:33:00,83.0,76.0,30.01,ENE,59,4.0,8.0,80,0.00,,,0.15,,2013-07-07 03:33:00,